This is the latest recevied weather packets stored in our database for station/object W4BOD. If no packets are shown the sender has not sent any weather packets the latest 10 day(s).
| Time | Temp. | Humidity | Pressure | Rain* | Wind** | Luminosity | Snow |
|---|---|---|---|---|---|---|---|
| 1777908556 | 22.78° C | 56% | 1013.8 hPa | 0 mm | - | 782 W/m² | - |
| 1777908253 | 22.22° C | 59% | 1013.9 hPa | 0 mm | - | 795 W/m² | - |
| 1777907949 | 22.22° C | 60% | 1013.8 hPa | 0 mm | - | 774 W/m² | - |
| 1777907644 | 21.67° C | 60% | 1013.9 hPa | 0 mm | - | 765 W/m² | - |
| 1777907340 | 21.67° C | 60% | 1014 hPa | 0 mm | - | 748 W/m² | - |
| 1777907037 | 21.11° C | 60% | 1013.9 hPa | 0 mm | - | 745 W/m² | - |
| 1777906735 | 21.11° C | 61% | 1014.1 hPa | 0 mm | - | 706 W/m² | - |
| 1777906430 | 21.11° C | 64% | 1014 hPa | 0 mm | - | 704 W/m² | - |
| 1777906128 | 20.56° C | 62% | 1014 hPa | 0 mm | - | 670 W/m² | - |
| 1777905824 | 20.56° C | 62% | 1014 hPa | 0 mm | - | 670 W/m² | - |
| 1777905521 | 20.56° C | 65% | 1014 hPa | 0 mm | - | 675 W/m² | - |
| 1777905218 | 20° C | 66% | 1014.2 hPa | 0 mm | - | 622 W/m² | - |
| 1777904916 | 19.44° C | 64% | 1014.3 hPa | 0 mm | - | 587 W/m² | - |
| 1777904612 | 19.44° C | 66% | 1014.3 hPa | 0 mm | - | 614 W/m² | - |
| 1777904310 | 18.89° C | 66% | 1014.3 hPa | 0 mm | - | 561 W/m² | - |
| 1777904007 | 18.89° C | 66% | 1014.2 hPa | 0 mm | - | 574 W/m² | - |
| 1777903703 | 18.89° C | 67% | 1014.3 hPa | 0 mm | - | 510 W/m² | - |
| 1777903399 | 18.89° C | 66% | 1014.4 hPa | 0 mm | - | 537 W/m² | - |
| 1777903096 | 18.33° C | 68% | 1014.5 hPa | 0 mm | - | 559 W/m² | - |
| 1777902793 | 17.78° C | 70% | 1014.6 hPa | 0 mm | - | 186 W/m² | - |
| 1777902490 | 17.22° C | 70% | 1014.6 hPa | 0 mm | - | 155 W/m² | - |
| 1777902187 | 17.22° C | 70% | 1014.8 hPa | 0 mm | - | 116 W/m² | - |
| 1777901885 | 16.67° C | 69% | 1014.6 hPa | 0 mm | - | 131 W/m² | - |
| 1777901582 | 16.67° C | 70% | 1014.6 hPa | 0 mm | - | 107 W/m² | - |
| 1777901279 | 16.67° C | 70% | 1014.8 hPa | 0 mm | - | 99 W/m² | - |
* Rain latest hour (hover to see other rain measurements)
** Current wind speed in m/s (hover to see current wind gust speed)